{"data":{"norad_id":53007,"intl_designator":"2022-076X","name":"STARLINK-4215","alt_names":[],"object_type":"PAYLOAD","status":"ACTIVE","operator":null,"country":"US","launch_date":"2022-07-07","launch_site_code":"AFETR","launch_vehicle":null,"mission":null,"orbit_class":"UNKNOWN","rcs_meters":null,"size_class":null,"mass_kg":null,"dimensions":null,"purposes":["comms"],"wikipedia_slug":null,"has_3d_model":false,"image_url":null,"decayed_at":null,"tle_current":{"epoch":"2026-09-19T18:27:27.736128Z","epoch_age_seconds":132031,"freshness":"FRESH","line1":"1 53007U 22076X   26262.76907102  .00001407  00000+0  51234-4 0  9992","line2":"2 53007  53.1601 287.8309 0001216  82.3931 277.7210 15.35402060232353","mean_motion":15.3540206,"eccentricity":0.0001216,"inclination_deg":53.1601,"raan_deg":287.8309,"arg_perigee_deg":82.3931,"mean_anomaly_deg":277.721,"bstar":5.1234e-5,"rev_number":23235,"period_min":93.786509573916,"perigee_km":458.89504243373,"apogee_km":460.55801084341,"semimajor_km":6837.8635266386,"source":"CELESTRAK","updated_at":"2026-09-20T09:00:40.142963Z"}}}